Total_Precipitation_Accumulation
2.28 2.48 2.88 3.28 3.56 3.72 3.84 4.16 4.34 4.12 3.67 3.28 2.82 2.71 2.68 2.46 2.26 2.17 2.01 2.17 2.11 2.33 2.70 2.45 2.75 2.42 2.50 2.67 2.69 2.92 2.87 2.57 2.51 2.89 2.92 2.32 1.86 1.91 1.79 1.75 1.96 1.94 2.06
1.91 1.99 2.14 2.49 2.71 2.95 3.23 3.57 3.80 3.68 3.10 2.87 2.72 2.64 2.61 2.45 2.49 2.38 2.36 2.10 2.08 2.30 2.36 2.74 2.53 2.59 2.76 2.77 2.83 2.98 2.97 2.66 2.61 3.04 3.38 2.98 2.85 2.44 1.67 1.74 1.90 1.92 2.15
1.66 1.76 1.78 1.89 2.15 2.74 2.97 2.87 3.13 3.32 3.05 2.96 2.92 2.83 2.79 2.60 2.70 2.67 2.55 2.18 2.02 2.02 2.20 2.38 2.41 2.66 2.46 2.81 3.05 3.01 3.09 3.07 2.89 2.94 3.39 3.40 3.24 2.72 2.13 1.73 1.72 1.94 2.31
1.26 1.46 1.42 1.48 1.72 2.03 2.33 2.68 3.00 3.09 3.01 2.90 2.73 2.64 2.43 2.37 2.40 2.39 2.40 2.27 2.14 2.02 2.11 2.24 2.54 2.71 2.44 3.00 2.60 2.74 3.00 3.15 2.96 2.94 2.80 2.92 3.13 3.20 2.90 2.33 1.85 1.82 2.06
0.81 0.98 1.12 1.25 1.33 1.49 1.91 2.47 2.93 3.15 3.05 2.73 2.60 2.71 2.56 2.46 2.44 2.32 2.50 2.36 2.21 2.05 1.95 2.23 2.50 2.62 2.51 2.67 2.73 3.00 2.89 2.83 2.83 2.93 3.00 3.13 3.07 2.82 2.94 2.86 2.50 2.17 1.71
0.62 0.71 0.82 1.06 1.21 1.29 1.57 2.03 2.47 2.77 2.84 2.65 2.53 2.60 2.69 2.67 2.53 2.39 2.36 2.19 2.14 2.08 2.00 2.19 2.49 2.45 2.50 2.67 2.65 2.80 2.78 2.85 2.94 2.79 2.73 2.98 2.97 2.86 2.93 2.66 2.44 2.34 1.70
0.62 0.74 0.82 0.96 0.99 1.06 1.33 1.64 1.87 2.09 2.31 2.48 2.53 2.45 2.62 2.68 2.46 2.24 2.28 2.24 2.07 2.08 2.15 2.29 2.57 2.48 2.56 2.63 2.87 2.93 2.83 2.82 2.85 2.69 2.55 2.54 2.44 2.56 2.75 2.90 2.52 2.26 1.76
0.66 0.74 0.90 0.97 0.92 0.97 1.20 1.42 1.62 1.88 2.15 2.34 2.41 2.33 2.27 2.18 2.14 2.28 2.18 2.17 2.15 2.10 2.04 2.19 2.24 2.23 2.31 2.37 2.88 2.72 2.66 2.75 2.67 2.41 2.69 2.57 2.21 2.33 2.52 2.86 3.10 2.80 2.35
0.78 0.85 0.98 1.02 0.92 0.99 1.21 1.36 1.56 1.73 1.88 2.19 2.36 2.25 2.19 2.02 1.98 2.04 2.02 1.97 2.11 2.08 2.02 1.97 2.04 2.11 2.27 2.43 2.64 2.56 2.64 2.83 2.67 2.57 2.73 2.52 2.27 2.25 2.22 2.59 3.04 3.38 3.14
0.90 1.01 1.00 1.04 1.01 1.08 1.31 1.37 1.48 1.57 1.60 1.76 1.84 1.75 1.95 1.96 2.06 2.04 1.94 1.87 1.87 1.91 1.98 2.06 2.06 2.10 2.18 2.39 2.61 2.63 2.77 2.86 2.72 2.74 2.81 2.65 2.39 2.47 2.32 2.41 2.77 3.07 3.27
0.88 0.99 0.95 0.94 0.92 0.99 1.12 1.14 1.28 1.43 1.48 1.61 1.68 1.74 1.86 1.92 1.96 1.99 1.97 1.97 1.96 1.97 1.97 2.07 2.13 2.15 2.17 2.35 2.54 2.46 2.73 2.88 2.93 2.73 2.70 2.66 2.69 2.70 2.53 2.62 2.74 2.81 3.14
0.70 0.91 0.98 1.01 0.81 0.87 0.95 1.07 1.25 1.36 1.42 1.61 1.76 1.82 1.97 2.02 1.95 1.98 2.17 2.17 2.11 2.07 2.07 2.16 2.25 2.22 2.24 2.41 2.41 2.27 2.37 2.60 2.84 3.06 3.19 2.94 2.95 2.95 2.77 2.76 2.75 2.82 3.06
0.72 0.87 0.97 0.89 0.80 0.81 0.89 0.93 1.06 1.21 1.32 1.48 1.65 1.89 1.98 2.04 2.20 2.36 2.52 2.54 2.42 2.36 2.35 2.42 2.35 2.38 2.45 2.44 2.35 2.37 2.39 2.49 2.57 2.83 3.11 3.12 3.31 3.05 3.05 2.95 2.82 2.83 2.84
0.69 0.71 0.86 0.91 0.83 0.79 0.82 0.87 1.01 1.16 1.34 1.63 1.84 2.03 2.26 2.43 2.58 2.59 2.68 2.69 2.63 2.60 2.59 2.60 2.52 2.48 2.53 2.56 2.54 2.52 2.48 2.52 2.49 2.55 2.68 2.81 3.11 3.11 3.18 3.01 3.02 3.14 3.19
0.66 0.80 0.92 1.07 1.06 0.98 0.90 0.94 1.17 1.40 1.63 1.92 2.05 2.12 2.24 2.43 2.70 2.93 2.93 2.85 2.76 2.66 2.83 2.81 2.71 2.70 2.69 2.48 2.63 2.85 2.81 2.86 2.63 2.53 2.50 2.49 2.74 2.83 2.90 2.65 2.86 3.19 3.24
0.79 0.94 1.06 1.19 1.29 1.32 1.29 1.32 1.47 1.74 2.06 2.37 2.52 2.66 2.76 2.88 3.02 3.11 3.17 3.22 3.16 3.08 3.02 2.91 2.95 2.91 2.64 2.76 2.84 2.77 2.81 3.00 2.97 2.82 2.74 2.60 2.54 2.54 2.58 2.61 2.70 2.86 2.88
0.95 1.06 1.16 1.23 1.38 1.42 1.50 1.69 1.87 2.10 2.34 2.53 2.66 2.78 2.89 3.05 3.21 3.30 3.36 3.22 3.17 3.11 3.01 2.99 3.04 2.95 2.96 2.92 2.68 2.56 2.57 2.66 2.75 2.79 2.75 2.44 2.29 2.53 2.43 2.60 2.62 2.44 2.37
1.09 1.12 1.19 1.29 1.39 1.52 1.70 1.89 2.04 2.17 2.49 2.72 2.82 2.88 2.93 3.02 3.23 3.44 3.36 3.19 3.16 3.10 3.06 3.02 2.92 2.84 2.73 2.79 2.54 2.54 2.43 2.37 2.32 2.45 2.55 2.49 2.36 2.39 2.52 2.44 2.18 1.95 1.95
1.07 1.16 1.27 1.35 1.48 1.55 1.61 1.62 1.75 1.96 2.21 2.45 2.64 2.66 2.81 3.00 3.11 3.15 3.18 3.26 3.23 3.02 2.86 2.77 2.76 2.71 2.76 3.01 2.73 2.59 2.36 2.34 2.17 2.19 2.20 2.21 2.06 2.22 2.37 2.26 2.01 1.82 1.74
1.12 1.24 1.38 1.43 1.42 1.45 1.49 1.57 1.73 1.96 2.18 2.39 2.60 2.78 2.94 3.10 3.13 3.16 3.30 3.37 3.34 3.30 3.25 3.11 3.04 2.94 2.89 3.11 2.85 2.66 2.38 2.33 2.26 2.28 2.23 2.29 2.06 2.00 1.96 1.85 1.86 1.66 1.57
1.08 1.18 1.34 1.50 1.50 1.48 1.65 1.83 1.97 2.13 2.32 2.45 2.55 2.69 2.89 3.12 3.37 3.55 3.48 3.49 3.47 3.39 3.23 3.09 2.95 2.90 2.87 2.83 2.64 2.48 2.16 2.09 2.16 2.02 1.90 1.94 1.96 1.75 1.60 1.57 1.53 1.47 1.58
1.02 1.21 1.35 1.48 1.62 1.71 1.86 2.02 2.07 2.14 2.36 2.57 2.67 2.74 2.94 3.02 3.17 3.45 3.47 3.40 3.40 3.31 3.23 3.22 3.17 3.06 2.86 2.58 2.34 2.21 2.05 2.04 2.01 2.01 1.99 2.02 2.05 1.81 1.67 1.49 1.35 1.42 1.45
1.10 1.23 1.37 1.51 1.60 1.80 1.98 2.13 2.21 2.27 2.38 2.53 2.71 2.91 3.02 3.08 3.21 3.38 3.44 3.43 3.35 3.22 3.10 3.00 2.84 2.83 2.81 2.70 2.47 2.17 1.96 1.92 1.79 1.96 2.28 2.32 2.24 2.01 1.73 1.64 1.66 1.60 1.46
1.33 1.37 1.46 1.56 1.63 1.71 1.93 2.13 2.26 2.31 2.42 2.51 2.58 2.74 2.90 3.04 3.20 3.23 3.09 2.97 2.83 2.77 2.77 2.64 2.52 2.52 2.58 2.46 2.36 2.17 2.05 2.03 1.92 1.95 2.23 2.41 2.39 2.25 2.01 1.89 1.81 1.61 1.52
1.43 1.48 1.57 1.68 1.72 1.74 1.82 2.06 2.27 2.36 2.41 2.54 2.61 2.60 2.62 2.71 2.87 2.95 2.90 2.77 2.60 2.47 2.43 2.32 2.31 2.30 2.25 2.29 2.35 2.18 2.05 2.03 2.09 2.16 2.32 2.45 2.55 2.57 2.49 2.37 2.29 2.17 2.02
1.56 1.59 1.63 1.67 1.70 1.80 1.92 2.01 2.29 2.56 2.65 2.63 2.50 2.42 2.33 2.33 2.40 2.43 2.46 2.59 2.48 2.47 2.32 2.19 2.13 2.06 2.10 2.15 2.11 2.02 1.94 1.95 2.09 2.12 2.17 2.41 2.61 2.70 2.78 2.81 2.69 2.48 2.29